Location: Unspecified
(0.0000°N, 0.0000°E)
Time: 18:53:47
(UTC+00:00)

X-37B - Pass Details

Date: 26 June 2022
Orbit: 326 x 345 km, 45.0° (Epoch: 25 June)

Event Time Altitude Azimuth Distance (km) Brightness Sun altitude
Rises 19:03:56 0° 251° (WSW) 2,069 5.0 -14.0°
Reaches altitude 10° 19:06:33 10° 278° (W) 1,233 4.4 -14.6°
Maximum altitude 19:08:07 14° 313° (NW) 1,031 3.8 -14.9°
Drops below altitude 10° 19:09:41 10° 348° (NNW) 1,229 3.6 -15.3°
Sets 19:12:17 0° 15° (NNE) 2,058 4.4 -15.9°
